Tracking 25710 objects as of 7-Jul-2022
HD Live streaming from Space Station
objects crossing your sky now

FENGYUN 1C DEB

Track FENGYUN 1C DEB now!
10-day predictions


NORAD ID: 37057
Int'l Code: 1999-025EER
Perigee: 710.6 km
Apogee: 1,136.0 km
Inclination: 99.0 °
Period: 103.3 minutes
Semi major axis: 7294 km
RCS: 0.0122 m2 (small)
Launch date: May 10, 1999
Source: People's Republic of China (PRC)
Launch site: Taiyaun Space Center, China (TSC)

Note: This is SATELLITE DEBRIS
aabbcc
Your satellite tracking list
Your tracking list is empty




NASA's NSSDC Master Catalog

Two Line Element Set (TLE):
1 37057U 99025EER 22187.32684413  .00000060  00000-0  56618-4 0  9994
2 37057  99.0302 219.1781 0291597 346.4314  12.9126 13.93565644460988
Source of the keplerian elements: AFSPC